Location: Unspecified
(0.0000°N, 0.0000°E)
Time: 07:19:10
(UTC+00:00)

Vanguard 1 Rocket - Visible Passes

Search period start: 26 September 2017 00:00
Search period end: 06 October 2017 00:00
Orbit: 654 x 4223 km, 34.3° (Epoch: 24 September)

Date Brightness Start Highest point End Pass type
(mag) Time Alt. Az. Time Alt. Az. Time Alt. Az.
26 Sep 11.3 00:09:23 10° W 00:47:54 11° SSE 00:48:23 10° SSE visible
26 Sep 11.1 03:05:08 11° SSW 03:06:27 11° SSW 03:10:10 10° S visible
26 Sep 10.9 17:54:17 10° NNW 18:08:56 31° NE 18:29:29 10° E visible
26 Sep 10.3 20:20:03 10° NW 20:42:20 76° NE 20:46:50 68° E visible
26 Sep 11.2 22:51:42 10° WNW 23:40:09 - SE 23:04:11 35° W visible
27 Sep 11.1 01:57:23 16° S 01:57:23 16° S 02:01:46 10° SSE visible
27 Sep 10.5 19:08:05 10° NW 19:27:00 56° NE 19:40:26 34° E visible
27 Sep 10.5 21:36:29 10° WNW 21:57:49 68° WSW 21:57:49 68° WSW visible
28 Sep 11.3 00:14:30 10° W 00:49:36 13° SSE 00:51:12 10° SSE visible
28 Sep 11.1 03:09:21 10° SSW 03:11:16 10° SSW 03:13:03 10° S visible
28 Sep 10.7 17:57:04 10° NNW 18:12:14 38° NE 18:34:13 11° E visible
28 Sep 10.3 20:23:04 10° NW 20:45:02 88° NE 20:51:36 65° SE visible
28 Sep 11.2 22:55:52 10° W 23:41:45 - SE 23:09:00 34° WSW visible
29 Sep 11.2 01:58:58 16° S 01:58:58 16° S 02:04:56 10° SSE visible
29 Sep 10.4 19:10:56 10° NW 19:29:48 66° NE 19:45:34 32° ESE visible
29 Sep 10.6 21:40:02 10° WNW 22:02:58 60° SW 22:02:58 60° SW visible
30 Sep 11.3 00:20:11 10° WSW 00:51:05 15° SSE 00:54:08 10° SSE visible
30 Sep 11.1 03:13:31 10° SSW 03:16:12 11° S 03:18:38 10° S visible
30 Sep 10.5 17:59:50 10° NNW 18:15:16 46° NE 18:38:56 10° ESE visible
30 Sep 10.4 20:26:15 10° WNW 20:47:48 80° SW 20:57:09 54° SE visible
30 Sep 11.3 23:00:29 10° W 23:43:07 - SSE 23:14:36 31° WSW visible
01 Oct 11.3 02:00:19 15° SSW 02:00:20 15° SSW 02:08:37 10° SSE visible
01 Oct 10.7 04:31:52 10° SSW 04:35:35 12° S 04:38:42 10° SSE visible
01 Oct 10.3 19:13:56 10° NW 19:32:32 78° NE 19:51:34 26° ESE visible
01 Oct 10.8 21:43:55 10° WNW 22:06:43 51° SW 22:09:01 50° SSW visible
02 Oct 11.3 00:26:18 10° WSW 00:52:17 17° S 00:57:20 10° SSE visible
02 Oct 11.1 03:15:59 10° SSW 03:21:08 12° S 03:25:25 10° SSE visible
02 Oct 10.3 18:02:42 10° NW 18:18:06 56° NE 18:42:48 10° ESE visible
02 Oct 10.6 20:29:41 10° WNW 20:50:42 68° SW 21:03:42 40° SSE visible
02 Oct 11.3 23:05:35 10° W 23:44:08 12° SSE 23:45:23 10° SSE visible
03 Oct 11.3 02:01:19 14° SSW 02:05:21 15° S 02:13:06 10° SSE visible
03 Oct 10.5 04:33:01 10° SSW 04:40:03 16° SSE 04:45:06 10° SE visible
03 Oct 10.3 19:17:04 10° NW 19:35:19 90° SW 19:58:40 17° SE visible
03 Oct 11.0 21:48:11 10° W 22:10:06 43° SSW 22:16:12 39° S visible
04 Oct 11.3 00:32:38 10° WSW 00:53:00 18° S 01:00:56 10° SSE visible
04 Oct 11.0 03:18:10 10° SSW 03:25:57 15° S 03:31:48 10° SE visible
04 Oct 10.2 18:05:39 10° NW 18:20:52 67° NE 18:46:15 10° ESE visible
04 Oct 10.7 20:33:22 10° WNW 20:53:47 58° SW 21:11:35 26° SSE visible
04 Oct 11.4 23:11:11 10° WSW 23:44:27 16° SSE 23:48:30 10° SSE visible
05 Oct 11.3 02:01:35 11° SSW 02:10:26 15° S 02:18:22 10° SSE visible
05 Oct 10.3 04:34:51 10° SSW 04:44:20 23° SSE 04:50:24 10° ESE visible
05 Oct 10.4 19:20:23 10° WNW 19:38:13 77° SW 20:04:57 10° SE visible
05 Oct 11.2 21:52:51 10° W 22:13:50 36° SSW 22:35:33 10° SSE visible
